Location: Atherton
(17.2661°S, 145.4859°E)
Time: 22:22:26
(UTC+10:00)

Hubble Space Telescope - Pass Details

Date: 23 May 2025
Orbit: 488 x 491 km, 28.5° (Epoch: 15 June)

Event Time Altitude Azimuth Distance (km) Brightness Sun altitude
Rises 18:42:55 0° 237° (WSW) 2,565 4.8 -12.3°
Reaches altitude 10° 18:45:18 10° 227° (SW) 1,683 3.7 -12.9°
Maximum altitude 18:48:47 31° 163° (SSE) 880 1.5 -13.7°
Enters shadow 18:50:14 24° 123° (ESE) 1,063 1.7 -14.0°
